Simultaneous Nadir Overpasses (SNOs) Predictions

Prediction of SNOs between TERRA and METOP-C Satellite Orbit:

Table of predicted SNOs for the next 14.0 days since TLE Epoch: 10/12/2024
Index Date (TERRA) Time (TERRA) Lat,Lon (TERRA) SZA (TERRA ) Date (METOP-C) Time (METOP-C) Lat,Lon (METOP-C) SZA (METOP-C ) Distance(km) Time Diff (sec)
1 10/12/2024 12:00:41 70.73, -11.57 78.50 10/12/2024 12:00:34 70.73, -11.52 78.51 2.05 7
2 10/12/2024 12:49:31 -72.44, 158.89 99.89 10/12/2024 12:50:42 -72.44, 158.89 99.89 0.12 71
3 10/15/2024 01:41:57 -68.48, -39.75 102.63 10/15/2024 01:40:56 -68.48, -39.72 102.60 1.24 61
4 10/15/2024 02:30:28 71.09, 131.47 79.80 10/15/2024 02:30:46 71.10, 131.51 79.80 1.78 18
5 10/17/2024 16:11:43 -68.82, 103.16 101.37 10/17/2024 16:11:09 -68.82, 103.15 101.36 0.70 34
6 10/17/2024 17:00:17 71.27, -85.77 80.91 10/17/2024 17:01:02 71.26, -85.78 80.91 0.40 45
7 10/20/2024 06:41:18 -69.64,-113.30 99.69 10/20/2024 06:41:12 -69.64,-113.27 99.68 1.05 6
8 10/20/2024 07:29:55 71.90, 57.76 82.44 10/20/2024 07:31:08 71.90, 57.79 82.44 1.26 73
9 10/22/2024 20:22:20 67.54,-140.97 79.30 10/22/2024 20:21:26 67.54,-140.94 79.32 1.42 54
10 10/22/2024 21:10:54 -70.25, 30.05 98.21 10/22/2024 21:11:18 -70.25, 30.08 98.20 1.09 24
11 10/25/2024 10:51:57 67.91, 1.97 80.54 10/25/2024 10:51:35 67.90, 1.93 80.54 1.65 22



Historial Predications of SNOs between TERRA and METOP-C
